Regional Weather Roundup
Issued by NWS

Home | Current Version | Previous Version | Graphics & Text | Print | Product List | Glossary On
Versions: 1 2 3 4 5 6 7 8 9 10 11 12 13 14 15 16 17 18 19 20 21 22 23 24 25 26 27 28 29 30 31 32 33 34 35 36 37 38 39 40 41 42 43 44 45 46 47 48 49 50
000
ASUS44 KMEG 191200
RWRTN
TENNESSEE HOURLY STATE WEATHER ROUNDUP
NATIONAL WEATHER SERVICE MEMPHIS TN
700 AM CDT SUN APR 19 2015

TNZ002-004-019-021-049-052-054-088>092-191300-
WEST TENNESSEE

CITY           SKY/WX    TMP DP  RH WIND       PRES   REMARKS
MEMPHIS INTL   LGT RAIN  65  63  93 S8        29.67R
NWS MEMPHIS      N/A     65 N/A N/A MISG        N/A
JACKSON        CLOUDY    65  63  93 CALM      29.67S
DYERSBURG      CLOUDY    64  52  63 SE3       29.67S
UNION CITY     CLOUDY    63  32  31 SE3       29.66S
PARIS          CLOUDY    63  63 100 SE5       29.68F
LEXINGTON      CLOUDY    63  63 100 CALM      29.67F
SAVANNAH       CLOUDY    64  32  29 CALM      29.69S
$$

TNZ008-025-027-028-033-062-065-066-191300-
NORTH MIDDLE TENNESSEE

CITY           SKY/WX    TMP DP  RH WIND       PRES   REMARKS
NASHVILLE      LGT RAIN  65  64  97 SE7       29.70F FOG
CLARKSVILLE    RAIN      65  64  97 SE5       29.69F FOG
COOKEVILLE     CLOUDY    64  63  94 SE8       29.75
CROSSVILLE     RAIN      63  60  90 SE8       29.82S FOG
$$

TNZ061-075-076-078-094-096-097-191300-
SOUTH MIDDLE TENNESSEE

CITY           SKY/WX    TMP DP  RH WIND       PRES   REMARKS
FAYETTEVILLE   CLOUDY    63  63 100 SE9       29.71F
TULLAHOMA      MOCLDY    64  63  94 CALM      29.73F
WINCHESTER     CLOUDY    64  64 100 E5        29.74F
MCMINNVILLE    CLOUDY    64  64 100 CALM      29.74F
COLUMBIA       MOCLDY    64  32  29 CALM      29.66F
SHELBYVILLE    CLOUDY    66  66 100 SE9       29.71F
$$

TNZ017-018-042-046-047-191300-
NORTHEAST TENNESSEE

CITY           SKY/WX    TMP DP  RH WIND       PRES   REMARKS
TRI CITIES     CLOUDY    64  58  80 NE5       29.90S
ELIZABETHTON   MOSUNNY   64  55  72 E7        29.89F
$$

TNZ012-013-036-069-073-074-191300-
CENTRAL EAST TENNESSEE

CITY           SKY/WX    TMP DP  RH WIND       PRES   REMARKS
KNOXVILLE      LGT RAIN  63  62  97 NE6       29.82F FOG
OAK RIDGE      RAIN      64  62  93 CALM      29.84F FOG
GATLINBURG     PTSUNNY   61  61 100 CALM      29.84S
$$

TNZ083-085-099-191300-
SOUTHEAST TENNESSEE

CITY           SKY/WX    TMP DP  RH WIND       PRES   REMARKS
CHATTANOOGA    LGT RAIN  67  65  93 SE13      29.76F FOG
$$

SKY/WX REPORTED AS FAIR MEANS FEW OR NO CLOUDS BELOW
12 THOUSAND FEET.




USA.gov is the U.S. government's official web portal to all federal, state and local government web resources and services.